This is the latest recevied weather packets stored in our database for station/object WW4HG. If no packets are shown the sender has not sent any weather packets the latest 1 day(s).
| Time | Temp. | Humidity | Pressure | Rain* | Wind** | Luminosity | Snow |
|---|---|---|---|---|---|---|---|
| 1778022146 | 21.11° C | 44% | 1017 hPa | 0 mm | 2.24 m/s, 115° | 19 W/m² | - |
| 1778021842 | 21.11° C | 44% | 1017 hPa | 0 mm | 0.45 m/s, 129° | 21 W/m² | - |
| 1778021539 | 21.11° C | 44% | 1017 hPa | 0 mm | 0 m/s | 23 W/m² | - |
| 1778021235 | 21.11° C | 44% | 1017 hPa | 0 mm | 1.34 m/s, 74° | 27 W/m² | - |
| 1778020933 | 21.11° C | 43% | 1017.3 hPa | 0 mm | 0 m/s | 29 W/m² | - |
| 1778020630 | 21.11° C | 43% | 1017 hPa | 0 mm | 0 m/s | 32 W/m² | - |
| 1778020326 | 21.67° C | 42% | 1017.3 hPa | 0 mm | 0.89 m/s, 151° | 34 W/m² | - |
| 1778020022 | 21.67° C | 42% | 1017.3 hPa | 0 mm | 0 m/s | 39 W/m² | - |
| 1778019718 | 21.67° C | 42% | 1017 hPa | 0 mm | 2.24 m/s, 175° | 39 W/m² | - |
| 1778019416 | 21.67° C | 41% | 1017 hPa | 0 mm | 0.89 m/s, 122° | 28 W/m² | - |
| 1778019112 | 21.67° C | 41% | 1017.3 hPa | 0 mm | 0 m/s | 32 W/m² | - |
| 1778018809 | 21.67° C | 41% | 1017.3 hPa | 0 mm | 0.89 m/s, 127° | 29 W/m² | - |
| 1778018507 | 21.67° C | 41% | 1017.3 hPa | 0 mm | 0 m/s | 30 W/m² | - |
| 1778018204 | 22.22° C | 41% | 1017 hPa | 0 mm | 0.89 m/s, 145° | 31 W/m² | - |
| 1778017902 | 22.22° C | 41% | 1017.3 hPa | 0 mm | 1.34 m/s, 114° | 29 W/m² | - |
| 1778017600 | 22.22° C | 40% | 1017.3 hPa | 0 mm | 1.79 m/s, 121° | 60 W/m² | - |
| 1778017297 | 22.22° C | 40% | 1017 hPa | 0 mm | 1.34 m/s, 146° | 29 W/m² | - |
| 1778016994 | 22.22° C | 40% | 1017 hPa | 0 mm | 0.89 m/s, 72° | 31 W/m² | - |
| 1778016691 | 22.22° C | 40% | 1017 hPa | 0 mm | 0 m/s | 31 W/m² | - |
| 1778016387 | 22.22° C | 40% | 1017 hPa | 0 mm | 0 m/s | 31 W/m² | - |
| 1778016085 | 22.22° C | 40% | 1017 hPa | 0 mm | 1.34 m/s, 109° | 32 W/m² | - |
| 1778015781 | 22.22° C | 40% | 1017 hPa | 0 mm | 0.45 m/s, 135° | 33 W/m² | - |
| 1778015479 | 22.22° C | 40% | 1017.3 hPa | 0 mm | 0 m/s | 37 W/m² | - |
| 1778015175 | 22.22° C | 40% | 1017.3 hPa | 0 mm | 0 m/s | 48 W/m² | - |
| 1778014872 | 22.78° C | 40% | 1017.3 hPa | 0 mm | 2.68 m/s, 109° | 52 W/m² | - |
* Rain latest hour (hover to see other rain measurements)
** Current wind speed in m/s (hover to see current wind gust speed)